Location: Eekst
(53.0191°N, 6.7366°E)
Time: 11:12:32
(UTC+00:00)

MetOp-A - Pass Details

Date: 15 May 2026
Orbit: 519 x 765 km, 98.3° (Epoch: 5 June)

Event Time Altitude Azimuth Distance (km) Brightness Sun altitude
Exits shadow 23:42:41 33° 195° (SSW) 1,183 4.4 -17.9°
Maximum altitude 23:44:38 57° 258° (WSW) 825 4.0 -17.9°
Drops below altitude 10° 23:49:13 10° 338° (NNW) 2,106 7.2 -17.8°
Sets 23:51:24 0° 342° (NNW) 2,984 8.3 -17.8°
